Location: Ithaca
(42.4410°N, 76.4970°W)
Time: 04:10:41
(UTC-04:00)

Hubble Space Telescope - Visible Passes

Search period start: 29 April 2016 00:00
Search period end: 09 May 2016 00:00
Orbit: 539 x 543 km, 28.5° (Epoch: 27 April)

Date Brightness Start Highest point End Pass type
(mag) Time Alt. Az. Time Alt. Az. Time Alt. Az.
01 May 3.1 05:19:57 10° S 05:20:46 10° S 05:21:35 10° SSE visible
02 May 3.0 05:09:45 10° SSW 05:11:00 11° S 05:12:14 10° SSE visible
03 May 3.0 04:59:49 10° SSW 05:01:14 11° S 05:02:39 10° SSE visible
04 May 2.9 04:50:21 11° SSW 04:51:28 12° S 04:52:55 10° SSE visible
05 May 2.9 04:41:15 11° S 04:41:42 11° S 04:43:04 10° SSE visible
06 May 3.0 04:32:14 11° S 04:32:14 11° S 04:33:03 10° S visible
